Weather Roundup
Issued by NWS Corpus Christi, TX

Home | Current Version | Previous Version | Text Only | Print | Product List | Glossary On
Versions: 1 2 3 4 5 6 7 8 9 10 11 12 13 14 15 16 17 18 19 20 21 22 23 24 25 26 27 28 29 30 31 32 33 34 35 36 37 38 39 40 41 42 43 44 45 46 47 48 49 50
000
ASUS44 KCRP 030510
HRRCRP

SOUTH TEXAS REGIONAL WEATHER ROUNDUP
NATIONAL WEATHER SERVICE CORPUS CHRISTI TX
1200 AM CDT THU SEP 03 2015


TXZ229>244-030600-
...CORPUS CHRISTI AREA OBSERVATIONS...

CITY           SKY/WX    TMP DP  RH WIND       PRES   REMARKS
CORPUS CHRISTI PTCLDY    79  74  84 S6        29.92F
NAS CORPUS CHR PTCLDY    80  75  84 SE9       29.92S
ROCKPORT       PTCLDY    82  74  76 SE7       29.92F
KINGSVILLE NAS PTCLDY    78  77  96 CALM      29.93S
ALICE          PTCLDY    76  74  93 SE3       29.93S
FALFURRIAS     CLEAR     77  74  90 CALM      29.93S
$$

...VICTORIA AREA OBSERVATIONS...

CITY           SKY/WX    TMP DP  RH WIND       PRES   REMARKS
VICTORIA       CLEAR     75  75 100 CALM      29.94F
BEEVILLE       FAIR      76  75  98 CALM      29.94S
PLEASANTON     CLEAR     78  71  78 E5        29.96R
SAN ANTONIO    CLEAR     79  70  74 SE10      29.98R
$$

...LAREDO AREA OBSERVATIONS...

CITY           SKY/WX    TMP DP  RH WIND       PRES   REMARKS
LAREDO         CLEAR     83  73  71 SE13      29.95R
COTULLA        CLEAR     83  71  67 SE10      29.94R
DEL RIO        CLEAR     83  62  49 E8        29.92S
MCALLEN        PTCLDY    81  75  82 SE7       29.94R
HEBBRONVILLE   NOT AVBL
$$

...OTHER TEXAS OBSERVATIONS...

CITY           SKY/WX    TMP DP  RH WIND       PRES   REMARKS
BROWNSVILLE    CLEAR     78  76  93 SE5       29.92S
HOUSTON        PTCLDY    74  73  97 N3        29.95S
COL. STATION   CLEAR     76  70  82 SE5       29.96F
AUSTIN         PTCLDY    77  69  76 SE6       29.96S
WACO           CLEAR     81  67  62 S12       29.96S
FORT WORTH     CLEAR     83  65  54 SE7       29.95F
WICHITA FALLS  CLEAR     78  63  59 S10       29.95S
LUBBOCK        MOCLDY    77  53  43 S12       30.04S
EL PASO        CLOUDY    84  48  28 N9        30.06R
$$

...MARINE OBSERVATIONS...

STATION/POSITION TIME  SKY/WX   TEMP    WIND        PRES    VSBY  WAVE   SWELL
                                AIR SEA DIR/SP/G                  HT/PER HT/PER
                 (UTC)          (F)     (DEG/KT/KT) (MB)    (MI)  (FT/S) (FT/S)
PORT ARANSAS     0500            83 85  120/ 10/ 11 1013.8F
BUOY 90 E PORT A 0450            82 84  140/ 10/ 12 1013.4S         2/ 5   2/ 5
BUOY 45 SE BAFFI 0450            83 84  140/ 12/ 14 1012.8S         3/ 6   2/ 6
BUOY 200 E PT IS 0450            83 85  110/ 14/ 16 1014.2S         3/ 6
BUOY 15 E GALVES 0450            82 85  130/ 10/ 12 1014.0F         3/ 5   2/ 5
$$


USA.gov is the U.S. government's official web portal to all federal, state and local government web resources and services.